Location: Observatorio Las Palmas
(29.0667°N, 110.9333°W)
Time: 09:02:31
(UTC-07:00)

Skynet4D Del rocket - Visible Passes

Search period start: 28 March 2015 00:00
Search period end: 07 April 2015 00:00
Orbit: 763 x 1291 km, 26.9° (Epoch: 27 March)

Date Brightness Start Highest point End Pass type
(mag) Time Alt. Az. Time Alt. Az. Time Alt. Az.
28 Mar 6.7 02:19:27 11° E 02:19:27 11° E 02:19:46 10° E visible
28 Mar 4.1 04:05:06 70° SSW 04:05:26 71° S 04:13:16 10° ESE visible
28 Mar 5.0 05:51:22 10° W 05:58:26 45° SSW 06:06:08 10° SE visible
29 Mar 5.8 02:58:24 26° E 02:58:24 26° E 03:01:26 10° E visible
29 Mar 4.5 04:44:03 36° WSW 04:46:56 56° SSW 04:54:40 10° ESE visible
30 Mar 4.8 03:37:25 48° SE 03:37:25 48° SE 03:42:59 10° ESE visible
30 Mar 5.0 05:23:04 16° W 05:28:21 39° SSW 05:35:36 10° SE visible
31 Mar 6.6 02:30:51 12° E 02:30:51 12° E 02:31:13 10° E visible
31 Mar 4.4 04:16:30 49° SSW 04:16:57 50° SSW 04:24:16 10° ESE visible
01 Apr 5.8 03:10:00 23° ESE 03:10:00 23° ESE 03:12:42 10° ESE visible
01 Apr 5.0 04:55:40 25° WSW 04:58:20 32° SSW 05:04:58 10° SE visible
02 Apr 5.1 03:49:15 33° SSE 03:49:15 33° SSE 03:53:49 10° SE visible
02 Apr 5.7 05:34:56 10° WSW 05:39:42 19° SSW 05:44:39 10° SSE visible
02 Apr 5.9 20:54:44 10° SSW 20:54:53 11° SSW 20:54:53 11° SSW visible
03 Apr 5.2 04:28:34 26° SSW 04:28:34 26° SSW 04:34:16 10° SSE visible
03 Apr 5.3 19:45:14 10° S 19:47:57 14° SSE 19:48:41 14° SE visible
04 Apr 6.2 03:22:17 14° SE 03:22:17 14° SE 03:23:21 10° SE visible
04 Apr 5.7 05:07:57 13° SW 05:09:46 14° SSW 05:13:14 10° S visible
04 Apr 4.8 20:24:34 10° SW 20:28:07 25° S 20:28:07 25° S visible
05 Apr 5.9 04:01:43 15° S 04:01:43 15° S 04:03:25 10° SSE visible
05 Apr 5.2 19:14:29 10° SSW 19:18:14 18° SSE 19:21:50 10° ESE visible
05 Apr 5.2 21:05:11 10° WSW 21:07:30 24° SW 21:07:30 24° SW visible
06 Apr 4.4 19:54:26 10° SW 19:59:28 33° SSE 20:01:10 27° SE visible
06 Apr 6.1 21:46:18 10° WSW 21:46:49 13° WSW 21:46:49 13° WSW visible
